Terminal Aerodrome Forecast
Issued by NWS Cleveland, OH

Home | Current Version | Previous Version | Graphics & Text | Print | Product List | Glossary On
Versions: 1 2 3 4 5 6 7 8 9 10 11 12 13 14 15 16 17 18 19 20 21 22 23 24
000
FTUS41 KCLE 281459 AAA
TAFMFD
TAF AMD
KMFD 281459Z 2815/2912 31015G25KT P6SM SCT030 OVC040
     FM282000 31012KT P6SM SCT050
     FM290300 VRB04KT P6SM SKC=

USA.gov is the U.S. government's official web portal to all federal, state and local government web resources and services.